Location: Newark
(47.5500°N, 8.6167°E)
Time: 01:59:53
(UTC+00:00)

Envisat - Pass Details

Date: 31 January 2020
Orbit: 764 x 766 km, 98.1° (Epoch: 25 February)

Event Time Altitude Azimuth Distance (km) Brightness Sun altitude
Rises 18:46:30 0° 220° (SW) 3,223 6.8 -24.0°
Reaches altitude 10° 18:50:15 10° 248° (WSW) 2,304 6.4 -24.7°
Maximum altitude 18:52:25 13° 274° (W) 2,128 6.3 -25.0°
Drops below altitude 10° 18:54:35 10° 299° (WNW) 2,311 6.3 -25.4°
Sets 18:58:23 0° 328° (NNW) 3,244 6.7 -26.0°
